Weather History for Binghamton, NY

Change the Weather History Date:

Sunday, February 24, 2013

  Actual Average Record
Temperature  
Mean Temperature 30 °F 27 °F  
Max Temperature 35 °F 34 °F 63 °F (1984)
Min Temperature 25 °F 19 °F 2 °F (1989)
Degree Days  
Heating Degree Days 35 38  
Month to date heating degree days 1007 976  
Since 1 July heating degree days 4750 5048  
Cooling Degree Days 0 0  
Month to date cooling degree days 0 0  
Year to date cooling degree days 0 0  
Moisture  
Dew Point 25 °F    
Average Humidity 85    
Maximum Humidity 100    
Minimum Humidity 69    
Precipitation  
Precipitation 0.01 in 0.09 in 1.80 in (1998)
Month to date precipitation 1.24 1.96  
Year to date precipitation 3.49 4.41  
Snow  
Snow 0.20 in 0.60 in 18.10 in (1998)
Month to date snowfall 16.4 14.6  
Since 1 July snowfall 50.6 61.4  
Snow Depth 4.00 in    
Sea Level Pressure  
Sea Level Pressure 29.84 in    
Wind  
Wind Speed 8 mph (NW)    
Max Wind Speed 15 mph    
Max Gust Speed 23 mph    
Visibility 5 miles    
Events Fog , Snow    
T = Trace of Precipitation, MM = Missing Value Source: NWS Daily Summary

Daily Weather History Graph

Daily Weather History Graph

Search for Another Location

Airport:

Trip Planner

Search our weather history database for the weather conditions in past years. The results will help you decide how hot, cold, wet, or windy it might be!

Date:

Astronomy

Feb. 24, 2013 Rise Set
Actual Time 6:46 AM EST 5:48 PM EST
Civil Twilight 6:18 AM EST 6:16 PM EST
Nautical Twilight 5:45 AM EST 6:48 PM EST
Astronomical Twilight 5:13 AM EST 7:21 PM EST
Moon 4:56 PM EST (2/24) 5:43 AM EST (2/24)
Length of Visible Light 11h 58m
Length of Day
11h 01m
Waxing Gibbous, 99% of the Moon is Illuminated
Feb 24
Waxing Gibbous
Feb 25
Full
Mar 4
Last Quarter
Mar 11
New
Mar 19
First Quarter

Hourly Weather History & Observations

Time (EST) Temp. Windchill Dew Point Humidity Pressure Visibility Wind Dir Wind Speed Gust Speed Precip Events Conditions
12:03 AM 33.8 °F - 33.8 °F 100% 29.80 in 0.2 mi Calm Calm - N/A Fog Fog
12:14 AM 35.6 °F - 33.8 °F 93% 29.80 in 0.5 mi Calm Calm - N/A Fog Fog
12:29 AM 35.6 °F - 33.8 °F 93% 29.79 in 0.5 mi Calm Calm - N/A Fog Fog
12:53 AM 34.0 °F - 33.1 °F 96% 29.83 in 0.5 mi Calm Calm - N/A Fog Fog
1:13 AM 33.8 °F - 33.8 °F 100% 29.78 in 0.2 mi Calm Calm - N/A Fog Fog
1:28 AM 33.8 °F - 33.8 °F 100% 29.77 in 1.0 mi Calm Calm - N/A   Overcast
1:32 AM 33.8 °F - 33.8 °F 100% 29.77 in 4.0 mi Calm Calm - N/A   Overcast
1:53 AM 35.1 °F - 33.1 °F 92% 29.81 in 7.0 mi Calm Calm - N/A   Overcast
2:11 AM 33.8 °F - 32.0 °F 93% 29.76 in 1.8 mi Calm Calm - N/A   Overcast
2:18 AM 33.8 °F 30.8 °F 32.0 °F 93% 29.77 in 0.5 mi WNW 3.5 mph - N/A Fog Fog
2:25 AM 33.8 °F 30.8 °F 30.2 °F 87% 29.77 in 0.2 mi WNW 3.5 mph - N/A Fog Fog
2:42 AM 33.8 °F 28.6 °F 30.2 °F 87% 29.77 in 0.2 mi West 5.8 mph - N/A Fog Fog
2:53 AM 32.0 °F 26.4 °F 30.9 °F 96% 29.82 in 0.2 mi WNW 5.8 mph - N/A Fog Fog
3:04 AM 32.0 °F 26.4 °F 30.2 °F 93% 29.77 in 0.2 mi NW 5.8 mph - N/A Fog Fog
3:29 AM 32.0 °F 24.8 °F 30.2 °F 93% 29.78 in 1.0 mi NNW 8.1 mph - N/A   Mist
3:38 AM 32.0 °F 24.2 °F 30.2 °F 93% 29.77 in 2.0 mi NNW 9.2 mph - N/A   Overcast
3:42 AM 32.0 °F 23.6 °F 30.2 °F 93% 29.77 in 1.0 mi NNW 10.4 mph - N/A   Mist
3:46 AM 30.2 °F 23.4 °F 30.2 °F 100% 29.77 in 0.5 mi NNW 6.9 mph - N/A Fog Light Freezing Fog
3:53 AM 30.9 °F 23.5 °F 30.0 °F 96% 29.82 in 0.2 mi NNW 8.1 mph - N/A Fog Light Freezing Fog
4:18 AM 30.2 °F 21.9 °F 28.4 °F 93% 29.77 in 1.0 mi NNW 9.2 mph - N/A   Mist
4:24 AM 30.2 °F 22.6 °F 28.4 °F 93% 29.77 in 0.8 mi NNW 8.1 mph - N/A   Mist
4:45 AM 30.2 °F 21.9 °F 28.4 °F 93% 29.77 in 1.5 mi North 9.2 mph - N/A   Overcast
4:53 AM 30.0 °F 22.4 °F 28.0 °F 92% 29.82 in 2.5 mi North 8.1 mph - N/A   Overcast
5:01 AM 30.2 °F 22.6 °F 28.4 °F 93% 29.77 in 4.0 mi North 8.1 mph - N/A   Overcast
5:39 AM 28.4 °F 19.7 °F 26.6 °F 93% 29.77 in 8.0 mi North 9.2 mph - N/A   Overcast
5:53 AM 28.0 °F 19.3 °F 24.1 °F 85% 29.82 in 10.0 mi North 9.2 mph - N/A   Overcast
6:26 AM 28.4 °F 21.2 °F 23.0 °F 80% 29.79 in 10.0 mi North 6.9 mph - N/A   Overcast
6:53 AM 28.0 °F 20.0 °F 23.0 °F 81% 29.84 in 10.0 mi North 8.1 mph - N/A   Overcast
7:53 AM 28.9 °F 22.8 °F 24.1 °F 82% 29.83 in 10.0 mi North 5.8 mph - N/A   Overcast
8:53 AM 28.9 °F 21.9 °F 21.9 °F 75% 29.83 in 10.0 mi NNW 6.9 mph - N/A   Overcast
9:53 AM 28.9 °F 21.1 °F 21.0 °F 72% 29.83 in 10.0 mi NNW 8.1 mph - N/A   Overcast
10:46 AM 28.4 °F 21.2 °F 21.2 °F 74% 29.80 in 2.0 mi NW 6.9 mph - 0.00 in Snow Light Snow
10:53 AM 28.0 °F 20.8 °F 21.9 °F 78% 29.85 in 2.0 mi NW 6.9 mph - 0.00 in Snow Light Snow
10:55 AM 28.4 °F 20.4 °F 21.2 °F 74% 29.80 in 1.8 mi NW 8.1 mph - 0.00 in Snow Light Snow
11:08 AM 28.4 °F 22.2 °F 23.0 °F 80% 29.80 in 2.0 mi NNW 5.8 mph - 0.00 in Snow Light Snow
11:15 AM 28.4 °F 21.2 °F 23.0 °F 80% 29.80 in 2.0 mi NNW 6.9 mph - 0.00 in Snow Light Snow
11:24 AM 28.4 °F 21.2 °F 23.0 °F 80% 29.80 in 1.0 mi NNW 6.9 mph - 0.00 in Snow Light Snow
11:40 AM 26.6 °F 18.2 °F 23.0 °F 86% 29.81 in 1.0 mi NNW 8.1 mph - 0.00 in Snow Light Snow
11:53 AM 27.0 °F 19.5 °F 23.0 °F 85% 29.86 in 1.0 mi NW 6.9 mph - 0.00 in Snow Light Snow
12:05 PM 28.4 °F 21.2 °F 21.2 °F 74% 29.80 in 7.0 mi WNW 6.9 mph - 0.00 in   Overcast
12:19 PM 28.4 °F 22.2 °F 21.2 °F 74% 29.80 in 10.0 mi WNW 5.8 mph - 0.00 in   Overcast
12:35 PM 28.4 °F 21.2 °F 19.4 °F 69% 29.80 in 10.0 mi NW 6.9 mph - 0.00 in   Overcast
12:53 PM 28.9 °F 20.4 °F 19.9 °F 69% 29.85 in 9.0 mi WNW 9.2 mph - 0.00 in Snow Light Snow
1:34 PM 28.4 °F 19.7 °F 19.4 °F 69% 29.81 in 7.0 mi NW 9.2 mph - 0.00 in Snow Light Snow
1:53 PM 28.9 °F 21.1 °F 19.9 °F 69% 29.86 in 10.0 mi NW 8.1 mph - 0.00 in   Overcast
2:06 PM 28.4 °F 20.4 °F 21.2 °F 74% 29.81 in 2.5 mi WNW 8.1 mph - 0.00 in Snow Light Snow
2:38 PM 28.4 °F 19.7 °F 23.0 °F 80% 29.81 in 1.2 mi NW 9.2 mph 16.1 mph 0.00 in Snow Light Snow
2:53 PM 28.0 °F 18.1 °F 21.9 °F 78% 29.86 in 1.2 mi NW 11.5 mph - 0.01 in Snow Light Snow
3:03 PM 26.6 °F 16.8 °F 23.0 °F 86% 29.82 in 0.8 mi NW 10.4 mph 23.0 mph 0.00 in Snow Light Snow
3:13 PM 26.6 °F 18.2 °F 23.0 °F 86% 29.82 in 1.0 mi NW 8.1 mph 16.1 mph 0.00 in Snow Light Snow
3:20 PM 26.6 °F 18.2 °F 21.2 °F 80% 29.82 in 8.0 mi WNW 8.1 mph - 0.00 in   Overcast
3:28 PM 28.4 °F 20.4 °F 21.2 °F 74% 29.82 in 10.0 mi NW 8.1 mph - 0.00 in   Overcast
3:42 PM 28.4 °F 20.4 °F 21.2 °F 74% 29.83 in 5.0 mi NW 8.1 mph - 0.00 in Snow Light Snow
3:53 PM 27.0 °F 17.3 °F 21.9 °F 81% 29.89 in 6.0 mi NW 10.4 mph 17.3 mph 0.00 in   Haze
4:12 PM 26.6 °F 16.2 °F 19.4 °F 74% 29.83 in 7.0 mi NW 11.5 mph 19.6 mph 0.00 in Snow Light Snow
4:53 PM 28.0 °F 18.6 °F 19.0 °F 69% 29.91 in 10.0 mi NW 10.4 mph - 0.00 in   Overcast
5:40 PM 26.6 °F 17.5 °F 19.4 °F 74% 29.87 in 9.0 mi WNW 9.2 mph 21.9 mph 0.00 in   Overcast
5:53 PM 27.0 °F 18.0 °F 19.0 °F 72% 29.94 in 10.0 mi NW 9.2 mph 18.4 mph 0.00 in   Overcast
6:38 PM 26.6 °F 18.2 °F 19.4 °F 74% 29.90 in 9.0 mi NW 8.1 mph 16.1 mph 0.00 in   Overcast
6:53 PM 26.1 °F 19.4 °F 19.9 °F 78% 29.97 in 10.0 mi WNW 5.8 mph - 0.00 in   Overcast
7:16 PM 24.8 °F 16.9 °F 19.4 °F 80% 29.91 in 10.0 mi WNW 6.9 mph - N/A   Partly Cloudy
7:53 PM 25.0 °F 18.1 °F 19.9 °F 81% 29.99 in 10.0 mi WNW 5.8 mph - N/A   Mostly Cloudy
8:53 PM 26.1 °F 17.6 °F 21.0 °F 81% 30.00 in 7.0 mi WNW 8.1 mph - 0.00 in Snow Light Snow
9:11 PM 26.6 °F 20.0 °F 21.2 °F 80% 29.94 in 6.0 mi NW 5.8 mph - 0.00 in Snow Light Snow
9:33 PM 26.6 °F 19.1 °F 21.2 °F 80% 29.95 in 6.0 mi WNW 6.9 mph - 0.00 in Snow Light Snow
9:53 PM 26.1 °F 18.4 °F 21.0 °F 81% 30.01 in 10.0 mi NW 6.9 mph - 0.00 in   Overcast
10:10 PM 26.6 °F 19.1 °F 21.2 °F 80% 29.95 in 10.0 mi WNW 6.9 mph - N/A   Overcast
10:53 PM 26.1 °F 19.4 °F 21.0 °F 81% 30.02 in 10.0 mi WNW 5.8 mph - N/A   Overcast
11:53 PM 27.0 °F 18.0 °F 21.9 °F 81% 30.02 in 9.0 mi WNW 9.2 mph - N/A   Overcast